Theta_e
330 332 333 337 341 343 338 338 341 344 342 345 347 344 339 338 338 339 339 339 340 344 344 344 347 347 344 343 344 343 342 342 345
329 333 334 337 341 345 345 345 345 346 345 344 342 339 336 336 338 338 338 339 341 342 345 346 344 346 344 343 342 341 339 340 342
330 334 335 336 340 344 346 347 347 347 345 342 341 338 337 336 338 338 338 338 338 340 342 345 344 344 343 341 340 340 341 344 345
330 333 335 336 339 343 344 346 347 346 344 341 339 339 339 338 338 338 337 336 337 337 338 340 343 343 342 341 340 343 343 341 343
329 333 335 337 338 338 341 345 344 345 345 342 340 341 340 339 339 339 338 338 340 340 340 342 342 343 345 345 346 344 340 339 341
328 332 332 331 329 330 330 336 340 341 343 343 341 341 340 340 340 340 341 341 343 344 344 344 346 346 344 343 346 343 342 340 341
328 327 324 325 328 332 332 334 340 345 345 343 342 342 341 339 340 342 343 341 340 340 340 341 341 340 344 345 344 345 344 344 344
324 323 324 324 325 331 335 336 335 341 344 344 341 338 338 340 343 343 340 337 337 338 338 338 338 337 338 339 344 348 343 343 343
321 321 321 325 328 327 331 334 332 341 342 341 338 336 337 339 338 337 337 337 336 337 336 337 337 337 336 336 340 336 335 340 343
322 321 321 323 324 326 325 328 333 336 335 336 336 336 337 336 335 335 336 338 337 337 335 335 333 333 334 333 336 332 332 335 339
325 323 324 326 324 323 326 335 334 334 334 335 333 332 333 335 336 335 337 337 335 333 333 332 331 331 332 332 333 328 328 331 335
327 325 326 328 329 331 336 336 335 334 332 333 332 333 335 337 339 336 337 333 331 331 331 330 330 331 330 330 330 325 324 327 332
329 331 328 326 330 337 336 334 335 332 331 333 334 336 335 338 336 333 332 331 330 331 330 329 329 328 329 326 329 323 322 323 328
327 326 325 327 330 332 329 331 332 331 331 331 333 334 333 332 331 330 330 329 330 329 327 327 326 326 326 326 326 326 319 317 327
328 328 327 327 326 326 326 329 331 325 322 324 326 326 325 325 325 325 326 326 327 326 325 323 323 322 322 323 324 319 319 316 316
326 325 326 326 324 320 318 319 319 317 317 318 319 318 319 320 321 321 321 320 320 320 321 320 320 319 319 320 323 323 317 315 316
322 323 321 324 320 316 314 316 316 314 314 315 314 313 314 315 315 315 317 317 317 317 317 317 318 318 318 319 320 321 323 323 323
320 321 321 320 316 314 313 313 312 312 311 310 309 309 310 310 311 312 313 314 315 315 317 316 316 316 317 316 316 319 313 311 317
319 316 315 313 313 312 310 310 309 309 309 308 306 306 307 307 308 309 310 311 310 309 307 305 304 302 304 313 308 305 303 301 301
313 313 312 312 311 310 309 307 307 308 308 307 306 305 306 307 306 307 307 308 308 307 309 306 304 303 302 302 302 301 300 299 298
Wind_Speed
4 5 2 6 1 1 6 7 8 8 7 4 5 6 6 4 4 2 1 3 4 4 4 4 6 2 4 5 6 5 4 2 3
8 6 6 7 6 4 7 6 6 7 7 6 5 6 5 4 4 3 2 4 4 3 4 4 4 2 5 4 3 2 1 1 3
7 6 6 7 6 5 4 6 7 7 7 7 5 5 4 3 3 0 2 4 5 6 6 5 5 3 2 3 4 3 3 1 3
8 8 8 5 1 3 6 5 6 6 5 7 6 5 2 2 1 2 4 4 5 6 6 7 4 3 2 4 5 5 1 3 5
9 6 8 10 12 15 12 5 5 5 4 5 6 5 4 1 2 2 4 4 5 5 6 6 6 4 5 3 5 5 3 2 4
8 14 16 14 13 12 13 11 2 5 4 4 5 6 5 3 1 2 3 4 4 4 5 7 7 5 4 5 5 5 5 4 3
15 15 13 9 8 8 9 14 13 1 4 4 6 6 6 5 3 1 2 4 4 5 5 6 7 6 6 6 4 5 6 6 9
16 13 11 8 6 8 10 2 13 7 2 4 5 6 5 5 3 3 3 3 4 5 5 4 5 6 7 6 5 4 3 2 5
15 13 12 10 10 9 8 11 9 9 5 4 4 5 5 4 4 3 1 1 2 2 4 5 5 5 5 6 4 8 10 5 3
18 15 13 8 8 12 15 13 8 5 3 2 0 2 4 4 3 3 4 2 2 2 3 4 5 6 6 7 7 8 8 10 5
15 14 11 10 4 3 4 5 3 4 2 1 2 4 3 2 4 4 3 3 3 4 3 4 4 5 6 7 7 10 12 12 7
14 9 8 4 3 4 4 5 3 4 3 2 4 5 2 1 2 3 2 4 4 4 4 4 4 4 6 6 8 11 12 9 7
9 6 5 6 3 3 4 3 3 4 4 2 3 3 3 1 3 3 4 4 5 4 3 5 4 6 4 6 6 9 11 8 5
3 2 4 5 4 4 5 3 5 5 5 5 4 4 5 5 5 4 4 5 3 4 6 6 5 5 5 6 6 8 9 6 4
6 2 5 6 8 8 7 5 7 8 8 6 6 6 6 6 6 5 5 5 5 6 6 5 6 5 7 6 7 8 8 10 6
8 3 6 6 10 10 9 11 9 9 6 7 7 7 7 6 6 5 5 6 7 6 6 4 5 6 7 7 6 6 11 10 10
7 3 5 8 10 11 10 8 9 8 8 8 6 6 6 6 7 8 7 6 6 5 6 6 7 7 7 7 7 7 7 7 5
6 6 8 9 9 8 8 7 8 6 6 6 6 5 5 6 5 6 7 6 5 6 6 6 7 8 8 8 8 8 9 9 9
8 9 8 9 8 8 7 6 6 6 6 5 5 5 6 6 6 6 6 7 8 7 10 13 13 13 9 7 10 14 15 15 15
11 10 9 9 8 6 6 6 6 6 7 7 7 6 7 5 6 7 7 7 8 10 7 9 11 12 10 8 14 17 17 16 13
Wind_Direction
156 173 174 98 318 118 102 140 148 148 157 135 114 121 117 121 110 78 357 317 311 319 323 333 333 304 127 136 155 151 154 160 217
181 165 149 132 203 166 121 129 136 138 128 124 125 122 123 106 61 29 338 315 316 315 322 341 352 66 126 135 143 149 196 201 259
162 155 154 166 172 136 111 125 122 125 135 138 145 125 119 127 124 232 327 341 333 327 322 322 335 350 221 187 180 201 240 245 255
173 181 161 160 73 142 119 109 117 127 134 137 126 115 127 162 246 320 345 327 313 308 307 305 300 294 295 232 220 197 128 8 344
178 170 66 36 31 15 341 134 131 139 159 142 152 151 147 201 287 315 322 322 318 316 311 311 303 279 280 253 223 210 182 211 267
91 91 83 85 64 35 359 331 298 140 159 163 163 151 154 159 246 309 342 347 343 348 347 350 359 360 319 275 247 239 249 225 277
100 101 100 93 86 65 53 1 301 187 140 159 163 150 137 148 163 125 352 356 357 358 356 354 353 354 354 348 318 252 241 244 256
118 119 118 127 139 153 119 249 313 287 229 186 162 132 148 157 163 125 93 19 2 349 350 345 340 342 347 350 346 7 16 306 272
133 139 147 167 144 142 120 175 252 262 221 200 154 158 173 175 152 128 86 20 332 358 338 331 334 334 329 329 330 329 342 341 305
157 165 165 166 170 163 176 203 224 243 271 274 146 178 169 178 171 218 223 260 313 342 327 315 312 316 323 319 313 304 308 305 304
163 164 163 159 208 78 70 131 145 158 180 299 264 270 313 216 198 207 195 206 258 299 292 302 305 307 314 315 307 309 312 316 303
165 167 176 131 136 128 139 118 192 164 133 175 259 300 256 310 213 169 227 272 290 292 298 304 298 298 306 309 308 311 313 328 308
160 167 105 93 80 92 70 20 181 149 138 195 241 201 235 209 349 353 307 300 300 279 277 272 290 298 288 276 285 298 307 329 309
20 75 135 133 140 79 53 33 121 106 90 38 341 16 11 8 4 337 326 314 306 294 299 293 290 288 295 298 288 295 295 323 321
351 263 98 106 97 72 36 45 88 73 56 5 21 26 31 18 5 1 352 327 300 297 290 291 295 305 308 303 300 297 298 306 268
122 247 99 91 98 87 54 47 53 66 23 19 21 24 14 353 334 345 352 344 335 330 327 319 310 307 301 300 301 301 296 295 302
122 146 107 104 91 74 63 51 55 52 26 15 15 1 344 339 346 348 344 341 333 326 325 319 311 309 304 304 304 302 303 305 309
155 116 86 82 87 91 82 64 56 41 25 14 11 353 342 337 336 339 337 322 308 315 308 294 310 302 296 301 300 296 299 297 305
98 92 87 86 88 86 73 66 49 22 17 17 6 358 355 351 351 339 328 322 322 299 283 294 296 283 259 294 272 287 292 296 296
91 82 78 77 80 76 57 45 33 9 6 13 7 356 344 346 338 331 328 324 317 323 324 290 291 301 306 283 280 296 299 297 296